Location: Aldenham
(51.6667°N, 0.3500°W)
Time: 06:53:08
(UTC+00:00)

YAOGAN 1 - Pass Details

Date: 18 November 2025
Orbit: 605 x 607 km, 97.8° (Epoch: 10 December)

Event Time Altitude Azimuth Distance (km) Brightness Sun altitude
Rises 16:44:33 0° 113° (ESE) 2,863 5.6 -6.0°
Reaches altitude 10° 16:47:34 10° 89° (E) 1,963 4.6 -6.4°
Maximum altitude 16:49:54 15° 56° (NE) 1,682 4.2 -6.7°
Drops below altitude 10° 16:52:14 10° 23° (NNE) 1,970 4.7 -7.1°
Sets 16:55:16 0° 360° (N) 2,879 5.8 -7.5°
